Regional Weather Roundup
Issued by NWS

Home | Current Version | Previous Version | Text Only | Print | Product List | Glossary On
Versions: 1 2 3 4 5 6 7 8 9 10 11 12 13 14 15 16 17 18 19 20 21 22 23 24 25 26 27 28 29 30 31 32 33 34 35 36 37 38 39 40 41 42 43 44 45 46 47 48 49 50
829
ASUS44 KJAN 210710
RWRMS

MISSISSIPPI HOURLY WEATHER ROUNDUP
NATIONAL WEATHER SERVICE JACKSON MS
200 AM CDT THU AUG 21 2014

NOTE: "FAIR: INDICATES FEW OR NO CLOUDS BELOW 12,000 FEET WITH NO
SIGNIFICANT WEATHER AND/OR OBSTRUCTIONS TO VISIBILITY.

MSZ001>002-007>008-010>013-018>021-025>028-034>036-210800-
NORTHWEST MISSISSIPPI

CITY           SKY/WX    TMP DP  RH WIND       PRES   REMARKS
CLARKSDALE     FAIR      75  75 100 CALM      30.05S
CLEVELAND      FAIR      76  73  92 S5        30.04S
GREENWOOD      CLEAR     74  72  93 CALM      30.05S
GREENVILLE     CLEAR     77  71  82 SW8       30.04F
GRENADA        FAIR      72  72 100 CALM      30.06S
OLIVE BRANCH   CLEAR     73  73 100 S6        30.05F
OXFORD         FAIR      73  70  88 CALM      30.07F
TUNICA         SUNNY     73  72  94 S6        30.04F
$$

MSZ003>006-009-014>017-022>024-029>033-037>039-210800-
NORTHEAST MISSISSIPPI

CITY           SKY/WX    TMP DP  RH WIND       PRES   REMARKS
BELMONT        FAIR      73  72  99 CALM      30.08S
COLUMBUS AFB   CLEAR     75  74  98 CALM      30.06F
CORINTH        FAIR      72  70  94 CALM      30.06S
GOLDN TRIANGLE CLEAR     75  70  83 S3        30.07F
STARKVILLE     FAIR      72  70  94 CALM      30.07S
TUPELO         CLEAR     76  72  87 CALM      30.06F
$$

MSZ040-058-210800-
CENTRAL MISSISSIPPI

CITY           SKY/WX    TMP DP  RH WIND       PRES   REMARKS
JACKSON INTL   CLEAR     76  71  85 S5        30.08S
JACKSON HAWKNS CLEAR     77  72  84 S3        30.08S
MERIDIAN KEY   CLEAR     74  72  93 CALM      30.08F
MERIDIAN NAS   CLEAR     75  72  90 CALM      30.08F
RAYMOND        FAIR      75  70  83 SW3       30.08S
VICKSBURG      PTCLDY    75  72  90 CALM      30.07S
$$

MSZ059>079-210800-
SOUTH MISSISSIPPI

CITY           SKY/WX    TMP DP  RH WIND       PRES   REMARKS
BROOKHAVEN     FAIR      73  72  94 S3        30.12S
COLUMBIA       FOG       72  72 100 MISG      30.08S VSB<1/4
HATTIESBURG    CLEAR     77  74  90 CALM      30.09S
MCCOMB         CLEAR     72  69  90 CALM      30.10S
NATCHEZ        PTCLDY    75  72  88 SE3       30.10S
PINE BELT      CLEAR     73  70  88 CALM      30.10S
$$

MSZ080>082-210800-
COASTAL MISSISSIPPI

CITY           SKY/WX    TMP DP  RH WIND       PRES   REMARKS
BILOXI         PTCLDY    82  77  84 SW7       30.08S HX  91
PASCAGOULA     PTCLDY    75  74  96 CALM      30.09S
GULFPORT       CLEAR     79  76  90 CALM      30.08R
$$



USA.gov is the U.S. government's official web portal to all federal, state and local government web resources and services.